Regional Weather Roundup
Issued by NWS Green Bay, WI

Home | Current Version | Previous Version | Text Only | Print | Product List | Glossary On
Versions: 1 2 3 4 5 6 7 8 9 10 11 12 13 14 15 16 17 18 19 20 21 22 23 24 25 26 27 28 29 30 31 32 33 34 35 36 37 38 39 40 41 42 43 44 45 46 47 48 49 50
000
ASUS43 KGRB 111059
RWRGRB

NORTH-CENTRAL AND NORTHEAST WISCONSIN REGIONAL WEATHER ROUNDUP
NATIONAL WEATHER SERVICE GREEN BAY WI
600 AM CDT FRI JUL 11 2014

WIZ005-009-010>012-018-019-111200-
NORTH CENTRAL WISCONSIN

CITY           SKY/WX    TMP DP  RH WIND       PRES   REMARKS
IRONWOOD       NOT AVBL
MANITOWISH WTR NOT AVBL
ARBOR VITAE    NOT AVBL
EAGLE RIVER    NOT AVBL
LAND O LAKES   NOT AVBL
RHINELANDER    MOCLDY    63  59  87 SW8       30.12R
PHILLIPS       NOT AVBL
ANTIGO         NOT AVBL
TOMAHAWK       NOT AVBL
MERRILL        NOT AVBL
$$

WIZ013-073-111200-
NORTHEAST WISCONSIN

CITY           SKY/WX    TMP DP  RH WIND       PRES   REMARKS
IRON MOUNTAIN  PTCLDY    57  53  86 SE5       30.10S
MARINETTE      MOCLDY    64  54  68 SW6       30.12S
$$

WIZ017-030-035>037-045-111200-
CENTRAL WISCONSIN

CITY           SKY/WX    TMP DP  RH WIND       PRES   REMARKS
MEDFORD        NOT AVBL
WAUSAU         CLEAR     63  59  87 SW5       30.11S
MOSINEE        CLEAR     63  61  94 S8        30.14R
MARSHFIELD     CLEAR     60  58  92 S6        30.11F
WISC RAPIDS    CLEAR     63  59  87 S6        30.14R
STEVENS POINT  NOT AVBL
WAUPACA        NOT AVBL
SHAWANO        NOT AVBL
CLINTONVILLE   NOT AVBL
$$

WIZ038-039-048-051-111200-
FOX VALLEY

CITY           SKY/WX    TMP DP  RH WIND       PRES   REMARKS
NWS GREEN BAY  MOCLDY    62  54  74 S7        30.15R
APPLETON       PTCLDY    63  54  72 SW6       30.15S
OSHKOSH        PTCLDY    62  54  74 S10       30.15R
FOND DU LAC    PTCLDY    59  53  80 S6        30.16S
$$

WIZ022-050-052-111200-
EAST CENTRAL WISCONSIN

CITY           SKY/WX    TMP DP  RH WIND       PRES   REMARKS
STURGEON BAY   CLOUDY    63  46  55 S9        30.15R
MANITOWOC      NOT AVBL
SHEBOYGAN      CLEAR     57  51  80 S5        30.17R
$$

LMZ563-521-522-541>543-111200-
LAKESHORE

STATION/POSITION TIME  TEMP    WIND        PRES    VSBY  WAVE
                       AIR SEA DIR/SP/G                  HT/PER
                 (UTC) (F)     (DEG/KT/KT) (MB)    (MI)  (FT/S)
SHEBOYGAN LKSHOR 1000   63     190/  9/  9 1021.5F
KEWAUNEE LKSHORE 1000   52     180/ 10/ 10 1021.4F
NORTHPORT PIER   1000   63     160/  6/ 10 1020.3S
N MID LAKE BUOY  1000   58 54  190/ 12/ 14 1020.7R         1/ 3
MENOMINEE LKSHOR 1000   67     200/  6/ 11 1020.7S
$$


USA.gov is the U.S. government's official web portal to all federal, state and local government web resources and services.